TIANMU-1 15

Last updated on Fri Sep 11 2026 00:02:39 GMT+0000 (Coordinated Universal Time)

1 58700U 24004A 26253.61084300 .00004100 00000+0 15551-3 0 9994 2 58700 97.4668 79.8354 0008236 44.2228 315.9668 15.27410591148814
UTC large
Height (km)
Speed (km/s)
/
Latitude / Longitude
Inclination (degrees)
Orbital Period (minutes)
Azimuth
Elevation
Range (km)
Doppler Factor

Next 0 passes for location: London (51.5072 / 0.1276)

No passes found over London.
TIANMU-1 15